[[{"header":{"parameterUnit":"m.s-1","parameterCategory":1,"la1":30.2991,"la2":30.254,"lo1":-89.0895,"lo2":-89.0444,"dy":0.0017,"dx":0.0017,"nx":28,"ny":28,"refTime":"2025-06-07T03:00:00:Z","depth":0,"parameterNumber":2,"parameterNumberName":"U-component_of_WINDS"},"data":[0,0,0,0,0,0,0,0,0,0,0,0,0,0,0,0,0,0,0,0,0,0,0,0,0,0,0,0,0,0,0,0,0,0,0,0,0,0,0,0,0,0,0,0,0,0,0,0,0,0,0,0,0,0,0,0,0,0,5.4316,5.4317,0,5.4406,5.4407,5.4408,5.4331,5.4328,5.4325,5.4322,5.4413,5.4419,5.4424,0,0,0,0,0,0,0,0,0,0,0,0,0,5.4075,5.408,5.4316,5.4317,5.4318,5.4406,5.4407,5.4408,5.4332,5.4328,5.4324,5.432,5.4412,5.4418,5.4425,0,0,0,0,0,0,0,0,0,0,0,0,0,5.4174,5.4082,5.4316,5.429,5.4289,5.4406,5.4407,5.4409,5.4332,5.4328,5.4323,5.4318,5.441,5.4417,5.4425,5.4572,0,0,5.445,5.4454,0,0,0,0,0,0,0,0,5.4168,5.4183,5.4293,5.4292,5.4291,5.4352,5.4356,5.4463,5.4334,5.4316,5.4321,5.4316,5.4397,5.4406,5.4433,5.4576,5.458,5.4451,5.4456,5.4459,5.4462,0,0,0,0,0,0,0,5.4162,5.4179,5.4352,5.4295,5.4294,5.4274,5.4283,5.4376,5.4382,5.4317,5.4312,5.4323,5.4395,5.4426,5.4435,5.4581,5.4451,5.4458,5.4463,5.4466,5.4844,5.4849,0,0,0,0,0,0,5.4158,5.4173,5.4349,5.4354,5.4217,5.4282,5.4292,5.4338,5.4381,5.4383,5.4327,5.432,5.4414,5.4425,5.4438,5.4608,5.4459,5.4467,5.4472,5.4839,5.4845,5.4851,0,0,0,0,0,0,5.4153,5.4174,5.4345,5.4262,5.4283,5.4291,5.4343,5.4342,5.4372,5.4389,5.4389,5.4357,5.4411,5.4426,5.4538,5.461,5.4471,5.4478,5.4833,5.4841,5.4848,5.4952,0,0,0,0,0,0,5.4146,5.4173,5.4229,5.4264,5.4287,5.4445,5.4348,5.4347,5.4386,5.4377,5.4417,5.4419,5.4408,5.4526,5.4546,5.4619,5.4484,5.4826,5.4837,5.4846,5.4943,5.4963,5.498,0,0,0,0,0,5.4138,5.4256,5.4232,5.4254,5.4358,5.4449,5.4462,5.4448,5.4392,5.4448,5.4459,5.4418,5.46,5.4538,5.456,5.4637,5.4822,5.4834,5.4845,5.4934,5.4959,5.498,0,0,0,0,0,0,5.4229,5.426,5.4234,5.4367,5.4406,5.4436,5.4506,5.4475,5.453,5.4519,5.4499,5.4508,5.4625,5.4643,5.4573,5.4778,5.4702,5.4718,5.4762,5.4786,5.4804,5.4796,5.4491,0,0,0,0,0,5.4264,5.4336,5.4359,5.4474,5.4495,5.4498,5.4537,5.4522,5.4561,5.4577,5.4596,5.4636,5.4701,5.4745,5.4807,5.4946,5.4951,5.5009,5.5028,5.5043,5.5057,5.5127,5.5152,5.4889,5.4889,5.4889,0,0,5.4338,5.4364,5.4411,5.4493,5.4521,5.4595,5.4512,5.4594,5.4647,5.459,5.4695,5.4711,5.4753,5.4878,5.4934,5.4896,5.5131,5.5058,5.507,5.5075,5.5142,5.5167,5.5189,5.4897,5.4896,5.4894,0,0,5.4509,5.4538,5.4634,5.4665,5.4708,5.4709,5.4733,5.4767,5.4775,5.4881,5.4838,5.4902,5.5017,5.5047,5.5078,5.526,5.5223,5.5281,5.5378,5.5447,5.5468,5.5486,5.5547,5.5569,5.5295,5.5295,5.5295,0,5.4595,5.4705,5.4688,5.4773,5.4809,5.476,5.4856,5.4887,5.4949,5.4974,5.4931,5.5072,5.5098,5.5227,5.5271,5.53,5.5323,5.5274,5.5466,5.5484,5.5501,5.5559,5.5582,5.5302,5.5301,5.53,5.53,0,5.4806,5.4883,5.4956,5.5015,5.506,5.5151,5.5147,5.5194,5.5176,5.5181,5.5287,5.5316,5.5381,5.5412,5.5396,5.5539,5.5513,5.5469,5.5391,5.5533,5.5586,5.5609,5.5311,5.5309,5.5307,5.5305,0,0,5.5035,5.5084,5.5111,5.5136,5.5181,5.5239,5.5327,5.539,5.5429,5.5474,5.5545,5.5643,5.5601,5.5636,5.5623,5.5684,5.5821,5.5632,5.5632,5.5662,5.5976,5.6006,5.6032,5.5798,5.5803,5.5806,5.5971,0,5.5205,5.5356,5.5343,5.5486,5.5554,5.5509,5.5585,5.562,5.5627,5.5685,5.5693,5.5761,5.5703,5.5723,5.5783,5.5792,5.5883,5.5781,5.5861,5.5864,5.5848,5.6061,5.6093,5.6247,5.5992,5.5996,5.5999,0,5.5422,5.5473,5.5622,5.5654,5.5682,5.5751,5.5806,5.5864,5.5902,5.5902,5.5941,5.5917,5.6003,5.5926,5.6042,5.5973,5.6005,5.6015,5.6021,5.6024,5.5937,5.6066,5.6297,5.6318,5.6032,5.603,5.6027,0,5.5569,5.5675,5.5777,5.5801,5.5842,5.589,5.5909,5.5942,5.598,5.603,5.6053,5.6113,5.6144,5.6189,5.6181,5.6126,5.6299,5.6222,5.6299,5.6299,5.6334,5.6331,5.6569,5.6363,5.6362,5.6362,5.6362,0,5.5757,5.5849,5.5843,5.5905,5.6006,5.5991,5.6092,5.6105,5.6135,5.6198,5.6164,5.6223,5.6211,5.627,5.6264,5.6359,5.6375,5.6376,5.6373,5.6377,5.6376,5.6395,5.6382,5.6368,5.6367,5.6366,5.6365,0,5.5936,5.5936,5.6044,5.6073,5.6083,5.6156,5.618,5.6238,5.6243,5.6323,5.6341,5.6347,5.6415,5.6412,5.6489,5.6485,5.6601,5.6587,5.6588,5.6583,5.6659,5.665,5.6914,5.6946,5.6723,5.6725,5.6727,0,5.6054,5.6123,5.616,5.6199,5.6221,5.6287,5.6325,5.6313,5.6353,5.6401,5.6453,5.6518,5.6568,5.6678,5.6689,5.6747,5.6732,5.682,5.674,5.6741,5.6728,5.6722,5.6727,5.6834,5.6837,5.6839,5.6841,0,5.6261,5.6258,5.6314,5.6371,5.6417,5.6462,5.6502,5.6536,5.6528,5.6576,5.6644,5.6683,5.6761,5.6824,5.688,5.6898,5.6867,5.6866,5.6886,5.6889,5.6885,5.6884,5.6626,5.6859,5.6857,5.6856,5.6855,5.6854,5.641,5.6469,5.6503,5.6566,5.6595,5.6633,5.6688,5.6699,5.6756,5.6818,5.6808,5.6884,5.6918,5.6989,5.7013,5.7071,5.7039,5.707,5.7076,5.7083,5.7089,5.6879,5.7082,5.7081,5.7081,5.708,5.708,0,5.6612,5.6632,5.6691,5.6747,5.6797,5.6765,5.6808,5.685,5.6918,5.6953,5.7003,5.708,5.7141,5.7157,5.7215,5.7258,5.7245,5.7274,5.7268,5.7272,5.7117,5.7091,5.7283,5.7283,5.7283,5.7283,5.7283,5.7283,5.6723,5.6818,5.6819,5.6928,5.6947,5.702,5.7047,5.7081,5.7108,5.7196,5.7246,5.7256,5.7283,5.7343,5.7396,5.7399,5.742,5.7454,5.7451,5.7304,5.7284,5.7264,5.724,5.746,5.746,5.7601,5.7602,5.7603]},{"header":{"parameterUnit":"m.s-1","parameterCategory":1,"la1":30.2991,"la2":30.254,"lo1":-89.0895,"lo2":-89.0444,"dy":0.0017,"dx":0.0017,"nx":28,"ny":28,"refTime":"2025-06-07T03:00:00:Z","depth":0,"parameterNumber":3,"parameterNumberName":"V-component_of_WINDS"},"data":[0,0,0,0,0,0,0,0,0,0,0,0,0,0,0,0,0,0,0,0,0,0,0,0,0,0,0,0,0,0,0,0,0,0,0,0,0,0,0,0,0,0,0,0,0,0,0,0,0,0,0,0,0,0,0,0,0,0,6.5269,6.527,0,6.5413,6.5415,6.5417,6.5396,6.5394,6.5392,6.5389,6.553,6.5536,6.5542,0,0,0,0,0,0,0,0,0,0,0,0,0,6.4967,6.4973,6.5269,6.5271,6.5272,6.5413,6.5415,6.5417,6.5397,6.5394,6.5391,6.5388,6.5528,6.5535,6.5542,0,0,0,0,0,0,0,0,0,0,0,0,0,6.5104,6.4975,6.5268,6.5279,6.5282,6.5413,6.5415,6.5418,6.5397,6.5394,6.539,6.5387,6.5526,6.5535,6.5543,6.5671,0,0,6.5571,6.5575,0,0,0,0,0,0,0,0,6.5096,6.5115,6.5276,6.5279,6.5282,6.5383,6.5361,6.5502,6.5398,6.5353,6.5389,6.5385,6.5484,6.5496,6.5531,6.5677,6.5683,6.5572,6.5577,6.5581,6.5584,0,0,0,0,0,0,0,6.5087,6.5108,6.5326,6.5278,6.5282,6.5274,6.529,6.5387,6.5437,6.5357,6.5356,6.5374,6.5485,6.5522,6.5534,6.5685,6.5571,6.5579,6.5585,6.5588,6.594,6.5944,0,0,0,0,0,0,6.5075,6.5101,6.5321,6.533,6.5178,6.5283,6.53,6.5354,6.5436,6.5445,6.5376,6.5372,6.5509,6.5523,6.5539,6.5691,6.5581,6.5589,6.5594,6.5936,6.5941,6.5945,0,0,0,0,0,0,6.5069,6.5095,6.5315,6.5215,6.5243,6.5292,6.5353,6.5359,6.5397,6.545,6.5458,6.5406,6.5506,6.5526,6.5638,6.5696,6.5593,6.5602,6.5932,6.5938,6.5943,6.5998,0,0,0,0,0,0,6.506,6.5093,6.5144,6.5217,6.5248,6.5415,6.5357,6.5364,6.5413,6.5409,6.548,6.5489,6.5505,6.5625,6.5647,6.5706,6.5609,6.5927,6.5934,6.5941,6.5991,6.6005,6.6017,0,0,0,0,0,6.505,6.5152,6.5146,6.5173,6.5313,6.5418,6.5436,6.5454,6.5418,6.5468,6.5502,6.5487,6.5686,6.5636,6.5661,6.5724,6.5923,6.5932,6.5941,6.5985,6.6002,6.6017,0,0,0,0,0,0,6.5083,6.5162,6.5156,6.5286,6.5346,6.5414,6.5478,6.5472,6.5541,6.5534,6.5552,6.5568,6.5681,6.5714,6.5657,6.585,6.5799,6.5813,6.5825,6.5841,6.5854,6.5843,6.5616,0,0,0,0,0,6.5106,6.5187,6.5251,6.5359,6.5389,6.5429,6.5475,6.5484,6.5546,6.557,6.5613,6.5671,6.5746,6.5796,6.5868,6.5996,6.601,6.6051,6.6064,6.6075,6.6086,6.6154,6.6172,6.5975,6.5975,6.5974,0,0,6.5153,6.5206,6.5256,6.5367,6.5414,6.5495,6.545,6.5538,6.5597,6.5583,6.5691,6.5724,6.579,6.591,6.5965,6.594,6.6144,6.6086,6.6094,6.61,6.6165,6.6184,6.62,6.5981,6.598,6.5979,0,0,6.528,6.533,6.5425,6.5473,6.5546,6.5571,6.5594,6.5664,6.5686,6.5795,6.5786,6.5855,6.5986,6.6032,6.6073,6.6217,6.6204,6.624,6.6307,6.6372,6.6388,6.6402,6.6451,6.6469,6.6251,6.6252,6.6252,0,6.5329,6.5453,6.5473,6.5563,6.5611,6.5603,6.5698,6.5743,6.5835,6.5867,6.5839,6.6002,6.6046,6.6175,6.621,6.6244,6.6268,6.6231,6.6384,6.6399,6.6412,6.6459,6.6477,6.6255,6.6255,6.6255,6.6254,0,6.5508,6.5594,6.5662,6.5753,6.5808,6.5899,6.5931,6.5984,6.5988,6.6016,6.6126,6.6178,6.6261,6.6292,6.6296,6.6422,6.6404,6.6381,6.633,6.6434,6.6478,6.6497,6.6261,6.6259,6.6258,6.6257,0,0,6.566,6.5761,6.5786,6.5826,6.5905,6.5971,6.606,6.6143,6.6187,6.625,6.6324,6.6434,6.6413,6.6459,6.6468,6.6526,6.6634,6.6495,6.6496,6.6517,6.6773,6.6789,6.681,6.6627,6.663,6.6633,6.6767,0,6.5794,6.5955,6.5975,6.6117,6.6196,6.6189,6.6267,6.6322,6.635,6.6418,6.6448,6.6525,6.6492,6.6519,6.6576,6.6609,6.6685,6.66,6.6693,6.6696,6.6675,6.6834,6.6852,6.6975,6.6784,6.6787,6.6789,0,6.5971,6.6041,6.6191,6.6259,6.6292,6.6362,6.6438,6.6505,6.6566,6.6582,6.6634,6.6636,6.6725,6.6672,6.6794,6.6735,6.6774,6.6796,6.6801,6.6809,6.6748,6.6844,6.7015,6.7033,6.6817,6.6815,6.6813,0,6.6064,6.6196,6.6303,6.6338,6.6419,6.6468,6.6504,6.6562,6.661,6.6676,6.6707,6.6782,6.6822,6.6879,6.6899,6.6859,6.7019,6.6968,6.7033,6.7032,6.7066,6.7063,6.7244,6.7094,6.7093,6.7093,6.7093,0,6.621,6.6302,6.6346,6.6411,6.6512,6.6534,6.6633,6.6666,6.6718,6.6788,6.6786,6.6851,6.6875,6.6943,6.696,6.7057,6.7075,6.7089,6.7091,6.7088,6.7086,6.7113,6.7104,6.7098,6.7097,6.7096,6.7095,0,6.6331,6.6365,6.648,6.6548,6.6567,6.6639,6.6696,6.6758,6.6785,6.6872,6.6894,6.6936,6.7015,6.7042,6.7138,6.7149,6.7262,6.7258,6.7242,6.7242,6.7304,6.7297,6.7507,6.7535,6.7368,6.7369,6.7371,0,6.6421,6.6492,6.6568,6.6616,6.6654,6.6731,6.678,6.6803,6.6854,6.6929,6.6981,6.706,6.7125,6.7252,6.7289,6.7362,6.7359,6.7427,6.737,6.7363,6.7358,6.7353,6.7359,6.7438,6.7439,6.7441,6.7442,0,6.6577,6.659,6.6662,6.6741,6.68,6.6862,6.6921,6.6959,6.6991,6.7047,6.713,6.7181,6.7279,6.7357,6.7432,6.7465,6.7458,6.746,6.7479,6.7475,6.7462,6.7468,6.7269,6.7455,6.7453,6.7453,6.7452,6.7451,6.6684,6.6746,6.6809,6.6889,6.6937,6.6993,6.7054,6.7089,6.7159,6.7243,6.7251,6.734,6.7397,6.7497,6.7534,6.7602,6.7582,6.7609,6.7616,6.7622,6.7626,6.7453,6.7615,6.7615,6.7615,6.7614,6.7614,0,6.6838,6.6879,6.6953,6.7037,6.7099,6.709,6.7155,6.7207,6.7285,6.7341,6.7406,6.7499,6.7575,6.7618,6.7693,6.7738,6.7737,6.7757,6.7753,6.776,6.764,6.7616,6.7757,6.7757,6.7757,6.7757,6.7757,6.7757,6.6926,6.703,6.705,6.7176,6.7215,6.7304,6.7341,6.7392,6.7436,6.7542,6.7606,6.7634,6.7684,6.7762,6.783,6.784,6.7867,6.7889,6.7897,6.7784,6.7769,6.7755,6.7732,6.7895,6.7896,6.8012,6.8013,6.8013]}]]